This is the latest recevied weather packets stored in our database for station/object KM4KBD. If no packets are shown the sender has not sent any weather packets the latest 10 day(s).
| Time | Temp. | Humidity | Pressure | Rain* | Wind** | Luminosity | Snow |
|---|---|---|---|---|---|---|---|
| 1778135808 | 10.56° C | 80% | 1020.5 hPa | 0 mm | - | 0 W/m² | - |
| 1778135504 | 11.11° C | 80% | 1020.4 hPa | 0 mm | - | 0 W/m² | - |
| 1778135201 | 11.11° C | 80% | 1020.4 hPa | 0 mm | - | 0 W/m² | - |
| 1778134899 | 11.11° C | 81% | 1020.7 hPa | 0 mm | - | 0 W/m² | - |
| 1778134597 | 10.56° C | 81% | 1020.6 hPa | 0 mm | - | 0 W/m² | - |
| 1778134294 | 11.11° C | 86% | 1020.5 hPa | 0 mm | - | 0 W/m² | - |
| 1778133992 | 11.11° C | 80% | 1020.7 hPa | 0 mm | - | 0 W/m² | - |
| 1778133688 | 11.11° C | 82% | 1020.4 hPa | 0 mm | - | 0 W/m² | - |
| 1778133384 | 11.11° C | 83% | 1020.3 hPa | 0 mm | - | 0 W/m² | - |
| 1778133080 | 11.11° C | 80% | 1020.2 hPa | 0 mm | - | 0 W/m² | - |
| 1778132776 | 11.11° C | 79% | 1020.5 hPa | 0 mm | - | 0 W/m² | - |
| 1778132473 | 11.11° C | 79% | 1020.2 hPa | 0 mm | - | 0 W/m² | - |
| 1778132171 | 11.67° C | 79% | 1020.5 hPa | 0 mm | - | 0 W/m² | - |
| 1778131870 | 11.67° C | 78% | 1020.5 hPa | 0 mm | - | 0 W/m² | - |
| 1778131567 | 11.67° C | 81% | 1020.6 hPa | 0 mm | - | 0 W/m² | - |
| 1778131263 | 11.67° C | 80% | 1020.6 hPa | 0 mm | - | 0 W/m² | - |
| 1778130961 | 11.67° C | 77% | 1020.4 hPa | 0 mm | - | 0 W/m² | - |
| 1778130658 | 11.67° C | 77% | 1020.6 hPa | 0 mm | - | 0 W/m² | - |
| 1778130354 | 11.67° C | 76% | 1020.5 hPa | 0 mm | - | 0 W/m² | - |
| 1778130051 | 11.67° C | 76% | 1020.4 hPa | 0 mm | - | 0 W/m² | - |
| 1778129748 | 11.67° C | 77% | 1020.7 hPa | 0 mm | - | 0 W/m² | - |
| 1778129445 | 11.67° C | 76% | 1020.5 hPa | 0 mm | - | 0 W/m² | - |
| 1778129141 | 11.67° C | 76% | 1020.9 hPa | 0 mm | - | 0 W/m² | - |
| 1778128839 | 12.22° C | 77% | 1020.8 hPa | 0 mm | - | 0 W/m² | - |
| 1778128534 | 12.22° C | 76% | 1020.6 hPa | 0 mm | - | 0 W/m² | - |
* Rain latest hour (hover to see other rain measurements)
** Current wind speed in m/s (hover to see current wind gust speed)